Home   Weather   Neenah   Past weeks
Flag for USA

Past Weather in Neenah, Wisconsin, USA — Yesterday and Last 2 Weeks

Now
84 °F

Thundershowers. Passing clouds.


Feels Like: 91 °F
Forecast: 80 / 70 °F
Wind: 18 mph from North

Location: Appleton / Outagamie

Current Time: Jul 19, 2019 at 10:39:52 pm

Latest Report: Jul 19, 2019 at 9:45 pm


Visibility: 10 mi

Pressure: 29.81 "Hg

Humidity: 70%

Dew Point: 73 °F

Location of NeenahLocation

Past Weather in Neenah — Graph

°F

Neenah Temperature Yesterday

Maximum temperature yesterday: 82 °F (at 5:45 pm)
Minimum temperature yesterday: 70 °F (at 12:15 am)
Average temperature yesterday: 74 °F

High & Low Weather Summary for the Past Weeks

 TemperatureHumidityPressure
High90 °F (Jul 19, 4:45 pm)100% (Jul 4, 11:55 pm)30.16 "Hg (Jul 4, 11:55 pm)
Low54 °F (Jul 7, 4:15 am)21% (Jul 11, 3:45 pm)29.67 "Hg (Jul 19, 1:55 am)
Average72 °F63%29.95 "Hg
* Reported Jul 4 8:45 pm — Jul 19 8:45 pm, Neenah. Weather by CustomWeather, © 2019

Note: Actual official high and low records may vary slightly from our data, if they occured in-between our weather recording intervals... More about our weather records

Advertising

Neenah Weather History for the Previous 24 Hours

Scroll right to see more
 ConditionsComfort  
Time TempWeatherWind HumidityBarometerVisibility
8:45 pm
Fri, Jul 19
84 °FPassing clouds.7 mph70%29.72 "Hg10 mi
7:45 pm84 °FPartly sunny.6 mph62%29.70 "Hg10 mi
6:45 pm88 °FScattered clouds.8 mph55%29.73 "Hg10 mi
5:45 pm88 °FScattered clouds.7 mph55%29.74 "Hg10 mi
4:45 pm90 °FPartly sunny.5 mph52%29.76 "Hg10 mi
3:45 pm88 °FScattered clouds.7 mph52%29.77 "Hg10 mi
2:45 pm88 °FBroken clouds.7 mph49%29.77 "Hg10 mi
1:45 pm86 °FBroken clouds.5 mph52%29.79 "Hg10 mi
12:45 pm84 °FPartly sunny.9 mph55%29.79 "Hg10 mi
11:45 am84 °FBroken clouds.7 mph58%29.78 "Hg10 mi
10:45 am82 °FBroken clouds.7 mph58%29.78 "Hg10 mi
9:45 am79 °FPartly sunny.9 mph70%29.77 "Hg10 mi
8:45 am75 °FPartly sunny.5 mph78%29.76 "Hg10 mi
7:45 am75 °FBroken clouds.6 mph89%29.75 "Hg10 mi
6:45 am73 °FBroken clouds.6 mph94%29.76 "Hg10 mi
5:45 am75 °FDrizzle. Broken clouds.5 mph94%29.74 "Hg7 mi
5:22 am75 °FThunderstorms. Fog.12 mph94%29.74 "Hg5 mi
5:15 am75 °FThunderstorms. Overcast.6 mph94%29.74 "Hg4 mi
4:55 am77 °FMostly cloudy.No wind89%29.74 "Hg10 mi
4:35 am75 °FOvercast.No wind100%29.73 "Hg10 mi
4:15 am77 °FLow clouds.5 mph94%29.72 "Hg7 mi
3:55 am77 °FFog.6 mph94%29.69 "Hg5 mi
3:35 am77 °FThundershowers. Clear.5 mph94%29.69 "Hg7 mi
3:15 am77 °FPassing clouds.7 mph94%29.69 "Hg10 mi
2:55 am77 °FThundershowers. Overcast.8 mph94%29.70 "Hg10 mi
2:35 am77 °FPartly cloudy.5 mph94%29.68 "Hg10 mi
2:15 am77 °FThundershowers. Passing clouds.No wind94%29.69 "Hg10 mi
1:55 am77 °FThundershowers. Partly cloudy.5 mph94%29.67 "Hg10 mi
1:35 am77 °FLight rain. Passing clouds.5 mph89%29.71 "Hg10 mi
1:15 am77 °FPassing clouds.No wind89%29.72 "Hg10 mi
12:55 am77 °FPassing clouds.3 mph89%29.71 "Hg10 mi
12:35 am77 °FPassing clouds.7 mph89%29.72 "Hg10 mi
12:15 am77 °FPassing clouds.6 mph89%29.74 "Hg10 mi
11:55 pm
Thu, Jul 18
77 °FPassing clouds.6 mph89%29.73 "Hg10 mi
11:35 pm77 °FPassing clouds.5 mph83%29.73 "Hg10 mi
11:15 pm77 °FPassing clouds.3 mph79%29.71 "Hg10 mi
10:55 pm77 °FPassing clouds.5 mph79%29.73 "Hg10 mi
Weather by CustomWeather, © 2019

See weather overview